Regional Weather Roundup
Issued by NWS

Home | Current Version | Previous Version | Graphics & Text | Print | Product List | Glossary On
Versions: 1 2 3 4 5 6 7 8 9 10 11 12 13 14 15 16 17 18 19 20 21 22 23 24 25 26 27 28 29 30 31 32 33 34 35 36 37 38 39 40 41 42 43 44 45 46 47 48
000
ASUS45 KSLC 040010
RWRUT

UTAH REGIONAL WEATHER ROUNDUP
NATIONAL WEATHER SERVICE SALT LAKE CITY UT
500 PM MST TUE MAR 03 2015

UTZ001>011-023>025-040100-

NORTHERN UTAH

CITY           SKY/WX    TMP DP  RH WIND       PRES   REMARKS
BRIGHAM CITY   PTSUNNY   37  17  45 N7        29.92R WCI  31
HILL AFB       PTSUNNY   33  22  63 N6        29.90R WCI  27
LOGAN          MOSUNNY   33  17  51 N3        29.90S
OGDEN          PTSUNNY   33  22  63 NW3       29.90R
PROVO AIRPORT  PTSUNNY   32  27  80 NW17G23   29.90R WCI  21
SALT LAKE CITY FLURRIES  36  24  62 N12       29.91S WCI  28
VERNAL         PTSUNNY   33  25  72 SE7       29.76S WCI  27
WENDOVER       MOSUNNY   39  12  33 N12G18    29.94S WCI  32
HEBER CITY     CLOUDY    32  19  59 N8        29.84R WCI  25
WEST JORDAN    CLOUDY    32  27  80 N8        29.92R WCI  25

$$

UTZ012>022-026-027-040100-

SOUTHERN/CENTRAL UTAH

CITY           SKY/WX    TMP DP  RH WIND       PRES   REMARKS
BLANDING       CLOUDY    36  29  78 S13       29.87R WCI  27
BRYCE CANYON   LGT SNOW  25  20  81 W13       29.80R WCI  14
CEDAR CITY     HVY SNOW  30  27  88 NE13G20   29.86R VSB 1/4 WCI  20
DELTA          MOSUNNY   36  21  55 N9        29.91R WCI  29
HANKSVILLE     CLOUDY    39  32  75 N3        29.80S
MILFORD        FLURRIES  31  27  85 N15       29.89R WCI  20
MOAB/CYNLANDS  LGT SNOW  33  32  96 NW13      29.78R VSB 1   WCI  24
PRICE          SUNNY     36  17  46 NW10      29.77R WCI  28
ST GEORGE      CLOUDY    45  36  70 N10       29.90R

$$

REGIONAL REPORTS     COLORADO/ARIZONA

CITY           SKY/WX    TMP DP  RH WIND       PRES   REMARKS
CRAIG, CO      CLOUDY    25  18  74 VRB5      29.76R WCI  19
GRAND JUNCTION PTSUNNY   41  31  67 SE7       29.74S
RIFLE          CLOUDY    36  30  79 W9        29.73S WCI  29
MONTROSE       PTSUNNY   40  26  57 NW10      29.76S WCI  33
CORTEZ         PTSUNNY   37  30  75 NW3       29.81S
PAGE, AZ       PTSUNNY   47  24  40 W10G18    29.80S
GRAND CANYON   PTSUNNY   33  26  75 SW7       29.85S WCI  27
KINGMAN        PTSUNNY   50  31  48 SW5       29.86S
FLAGSTAFF      PTSUNNY   34  26  72 W6        29.85  WCI  29

$$

REGIONAL REPORTS    NEVADA/IDAHO/WYOMING

CITY           SKY/WX    TMP DP  RH WIND       PRES   REMARKS
LAS VEGAS, NV  PTSUNNY   56  32  40 SW7       29.81F
ELY            PTSUNNY   28  16  60 N12       29.93R WCI  18
ELKO           MOSUNNY   36  13  38 NW8       29.97S WCI  30
POCATELLO, ID  MOSUNNY   30  12  47 NW6       29.95S WCI  24
BURLEY         PTSUNNY   37  18  46 W10G17    29.91S WCI  30
EVANSTON, WY   MOSUNNY   24  14  65 W10       29.80R WCI  14
ROCK SPRINGS   CLOUDY    13   8  81 NE7       29.74F WCI   3

$$


USA.gov is the U.S. government's official web portal to all federal, state and local government web resources and services.